[[{"header":{"parameterUnit":"m.s-1","parameterCategory":1,"la1":30.2991,"la2":30.254,"lo1":-89.0895,"lo2":-89.0444,"dy":0.0017,"dx":0.0017,"nx":28,"ny":28,"refTime":"2023-09-28T09:00:00:Z","depth":0,"parameterNumber":2,"parameterNumberName":"U-component_of_WINDS"},"data":[0,0,0,0,0,0,0,0,0,0,0,0,0,0,0,0,0,0,0,0,0,0,0,0,0,0,0,0,0,0,0,0,0,0,0,0,0,0,0,0,0,0,0,0,0,0,0,0,0,0,0,0,0,0,0,0,0,0,-5.0749,-5.0749,0,-5.0798,-5.0799,-5.0799,-5.0653,-5.0649,-5.0644,-5.064,-5.0691,-5.0697,-5.0702,0,0,0,0,0,0,0,0,0,0,0,0,0,-5.0528,-5.0533,-5.0749,-5.0749,-5.075,-5.0798,-5.0799,-5.08,-5.0654,-5.0648,-5.0643,-5.0638,-5.0689,-5.0696,-5.0703,0,0,0,0,0,0,0,0,0,0,0,0,0,-5.0605,-5.0534,-5.0749,-5.0683,-5.0678,-5.0798,-5.0799,-5.08,-5.0655,-5.0648,-5.0641,-5.0635,-5.0687,-5.0695,-5.0704,-5.089,0,0,-5.0729,-5.0733,0,0,0,0,0,0,0,0,-5.0601,-5.0614,-5.0692,-5.0688,-5.0682,-5.0713,-5.074,-5.083,-5.0657,-5.0664,-5.064,-5.0632,-5.0704,-5.071,-5.0734,-5.0892,-5.0894,-5.073,-5.0735,-5.0738,-5.0741,0,0,0,0,0,0,0,-5.0596,-5.0611,-5.0768,-5.0693,-5.0687,-5.0651,-5.0655,-5.0756,-5.0721,-5.0663,-5.0652,-5.066,-5.07,-5.0727,-5.0735,-5.0895,-5.0729,-5.0737,-5.0742,-5.0745,-5.1207,-5.1214,0,0,0,0,0,0,-5.0599,-5.0607,-5.0767,-5.077,-5.0624,-5.0661,-5.0664,-5.071,-5.0719,-5.0714,-5.0666,-5.0653,-5.0716,-5.0725,-5.0736,-5.0953,-5.0738,-5.0746,-5.0751,-5.12,-5.1208,-5.1216,0,0,0,0,0,0,-5.0595,-5.0615,-5.0765,-5.0686,-5.0702,-5.0671,-5.0723,-5.0714,-5.0741,-5.0722,-5.0715,-5.07,-5.0711,-5.0724,-5.0852,-5.0953,-5.075,-5.0757,-5.1191,-5.1202,-5.1212,-5.1391,0,0,0,0,0,0,-5.0589,-5.0614,-5.0685,-5.0688,-5.0707,-5.0881,-5.073,-5.072,-5.0756,-5.0739,-5.0752,-5.0747,-5.0707,-5.0841,-5.0861,-5.0961,-5.0764,-5.1182,-5.1196,-5.1209,-5.1376,-5.1407,-5.1433,0,0,0,0,0,-5.0582,-5.0734,-5.0689,-5.0709,-5.0794,-5.0887,-5.0898,-5.0847,-5.0764,-5.0835,-5.0822,-5.0747,-5.0939,-5.0855,-5.0876,-5.0981,-5.1175,-5.1192,-5.1208,-5.1364,-5.1401,-5.1433,0,0,0,0,0,0,-5.0743,-5.0733,-5.0683,-5.0841,-5.0866,-5.0862,-5.095,-5.0889,-5.0938,-5.0921,-5.0857,-5.0861,-5.1001,-5.1003,-5.091,-5.1161,-5.1043,-5.1064,-5.1154,-5.119,-5.1218,-5.1214,-5.0771,0,0,0,0,0,-5.0797,-5.0873,-5.086,-5.1,-5.1015,-5.0981,-5.1019,-5.0978,-5.1002,-5.1012,-5.1008,-5.1034,-5.11,-5.1145,-5.1205,-5.1376,-5.1376,-5.1458,-5.1487,-5.151,-5.153,-5.162,-5.1656,-5.127,-5.127,-5.1269,0,0,-5.0909,-5.0913,-5.0965,-5.1033,-5.1047,-5.1127,-5.0991,-5.1081,-5.114,-5.1025,-5.1146,-5.1145,-5.1169,-5.132,-5.1386,-5.1326,-5.1636,-5.1531,-5.155,-5.1557,-5.164,-5.1677,-5.1709,-5.1281,-5.1279,-5.1277,0,0,-5.1154,-5.1165,-5.1282,-5.13,-5.1323,-5.1299,-5.1328,-5.1333,-5.1328,-5.1448,-5.1363,-5.1432,-5.1547,-5.1568,-5.1593,-5.1846,-5.1778,-5.1867,-5.2016,-5.2104,-5.2135,-5.2161,-5.2251,-5.2284,-5.1886,-5.1887,-5.1887,0,-5.129,-5.1408,-5.1351,-5.1447,-5.1479,-5.1379,-5.1497,-5.1516,-5.1559,-5.1583,-5.1516,-5.1657,-5.1667,-5.182,-5.1882,-5.1906,-5.1936,-5.1865,-5.2135,-5.2161,-5.2185,-5.227,-5.2304,-5.1897,-5.1896,-5.1895,-5.1894,0,-5.1574,-5.1656,-5.1748,-5.1791,-5.1833,-5.1941,-5.19,-5.1949,-5.1905,-5.1888,-5.2011,-5.2019,-5.2078,-5.2111,-5.2069,-5.2259,-5.2221,-5.2146,-5.2026,-5.2234,-5.2312,-5.2344,-5.1912,-5.1909,-5.1905,-5.1903,0,0,-5.1922,-5.1931,-5.1966,-5.1984,-5.2002,-5.2065,-5.2167,-5.2224,-5.2268,-5.23,-5.2384,-5.2484,-5.2414,-5.2443,-5.2402,-5.248,-5.2678,-5.2394,-5.2394,-5.2446,-5.2887,-5.2944,-5.2982,-5.2634,-5.264,-5.2644,-5.2885,0,-5.2162,-5.2337,-5.2289,-5.2463,-5.2538,-5.2444,-5.2533,-5.2554,-5.2541,-5.2602,-5.2587,-5.2659,-5.2562,-5.2578,-5.2651,-5.2639,-5.2766,-5.2621,-5.2711,-5.2715,-5.2707,-5.3023,-5.3083,-5.3309,-5.2915,-5.292,-5.2924,0,-5.2467,-5.251,-5.2693,-5.2698,-5.2727,-5.2808,-5.2856,-5.2917,-5.2938,-5.2923,-5.2956,-5.2899,-5.2999,-5.2879,-5.3016,-5.2918,-5.2952,-5.2952,-5.2959,-5.2965,-5.2832,-5.3037,-5.3381,-5.3415,-5.2972,-5.2968,-5.2965,0,-5.2701,-5.2806,-5.2928,-5.2946,-5.2955,-5.3014,-5.3021,-5.3036,-5.3073,-5.3115,-5.3139,-5.3193,-5.3222,-5.3265,-5.3224,-5.3141,-5.3368,-5.3244,-5.3357,-5.3359,-5.3409,-5.3406,-5.3763,-5.3433,-5.3432,-5.3431,-5.3431,0,-5.2975,-5.309,-5.3033,-5.3109,-5.3234,-5.3177,-5.3304,-5.3299,-5.3313,-5.3386,-5.3308,-5.3378,-5.3319,-5.3384,-5.3353,-5.3471,-5.3485,-5.3475,-5.3465,-5.3482,-5.3483,-5.3503,-5.3486,-5.344,-5.3438,-5.3437,-5.3435,0,-5.3258,-5.3225,-5.3352,-5.335,-5.3352,-5.3445,-5.3443,-5.3512,-5.3493,-5.3586,-5.3605,-5.3575,-5.3647,-5.361,-5.3686,-5.3664,-5.3816,-5.3786,-5.3809,-5.3801,-5.3916,-5.3906,-5.4297,-5.4345,-5.3985,-5.3989,-5.3991,0,-5.3435,-5.3521,-5.3528,-5.3571,-5.3582,-5.3652,-5.369,-5.3637,-5.3679,-5.371,-5.3776,-5.3841,-5.389,-5.4009,-5.3995,-5.4052,-5.4021,-5.4154,-5.4029,-5.4043,-5.4022,-5.4017,-5.4025,-5.418,-5.4184,-5.4187,-5.419,0,-5.3751,-5.373,-5.3787,-5.3839,-5.3885,-5.3923,-5.3955,-5.3994,-5.3942,-5.3993,-5.4066,-5.4104,-5.418,-5.4246,-5.4295,-5.4301,-5.4238,-5.423,-5.4258,-5.4276,-5.4286,-5.4281,-5.3877,-5.4221,-5.4218,-5.4215,-5.4214,-5.4212,-5.3985,-5.4057,-5.4073,-5.4139,-5.4157,-5.4188,-5.4253,-5.4241,-5.4301,-5.4358,-5.4323,-5.4408,-5.4427,-5.4486,-5.4501,-5.4567,-5.4514,-5.4556,-5.4567,-5.4578,-5.4593,-5.4276,-5.4576,-5.4575,-5.4574,-5.4573,-5.4572,0,-5.4297,-5.4302,-5.4363,-5.4409,-5.4461,-5.4396,-5.4427,-5.4475,-5.4551,-5.4573,-5.4623,-5.4706,-5.4769,-5.4759,-5.4817,-5.4871,-5.4843,-5.4888,-5.4883,-5.4886,-5.4638,-5.4606,-5.4909,-5.4909,-5.4909,-5.4909,-5.4909,-5.4909,-5.4465,-5.4582,-5.4564,-5.4689,-5.4694,-5.4776,-5.4799,-5.4827,-5.4845,-5.4941,-5.4993,-5.4986,-5.4995,-5.5053,-5.5108,-5.5103,-5.5128,-5.5183,-5.5168,-5.4936,-5.4903,-5.4871,-5.4841,-5.5189,-5.5189,-5.541,-5.5412,-5.5414]},{"header":{"parameterUnit":"m.s-1","parameterCategory":1,"la1":30.2991,"la2":30.254,"lo1":-89.0895,"lo2":-89.0444,"dy":0.0017,"dx":0.0017,"nx":28,"ny":28,"refTime":"2023-09-28T09:00:00:Z","depth":0,"parameterNumber":3,"parameterNumberName":"V-component_of_WINDS"},"data":[0,0,0,0,0,0,0,0,0,0,0,0,0,0,0,0,0,0,0,0,0,0,0,0,0,0,0,0,0,0,0,0,0,0,0,0,0,0,0,0,0,0,0,0,0,0,0,0,0,0,0,0,0,0,0,0,0,0,-1.9758,-1.9758,0,-1.9805,-1.9806,-1.9806,-1.9803,-1.9803,-1.9802,-1.9801,-1.9848,-1.985,-1.9852,0,0,0,0,0,0,0,0,0,0,0,0,0,-1.9662,-1.9663,-1.9757,-1.9758,-1.9759,-1.9805,-1.9806,-1.9806,-1.9804,-1.9803,-1.9802,-1.9801,-1.9848,-1.985,-1.9852,0,0,0,0,0,0,0,0,0,0,0,0,0,-1.9706,-1.9664,-1.9757,-1.9763,-1.9764,-1.9805,-1.9806,-1.9806,-1.9804,-1.9803,-1.9802,-1.9801,-1.9847,-1.985,-1.9852,-1.989,0,0,-1.9861,-1.9862,0,0,0,0,0,0,0,0,-1.9703,-1.9709,-1.9762,-1.9763,-1.9764,-1.9797,-1.9789,-1.9834,-1.9804,-1.9789,-1.9801,-1.98,-1.9832,-1.9836,-1.9847,-1.9892,-1.9894,-1.9861,-1.9863,-1.9864,-1.9865,0,0,0,0,0,0,0,-1.97,-1.9707,-1.9776,-1.9762,-1.9764,-1.9762,-1.9767,-1.9798,-1.9815,-1.979,-1.979,-1.9795,-1.9832,-1.9844,-1.9848,-1.9895,-1.9861,-1.9864,-1.9865,-1.9866,-1.9972,-1.9973,0,0,0,0,0,0,-1.9696,-1.9704,-1.9775,-1.9778,-1.973,-1.9765,-1.977,-1.9788,-1.9815,-1.9818,-1.9796,-1.9795,-1.984,-1.9845,-1.985,-1.9895,-1.9864,-1.9867,-1.9868,-1.9971,-1.9973,-1.9974,0,0,0,0,0,0,-1.9694,-1.9702,-1.9773,-1.9741,-1.975,-1.9767,-1.9787,-1.9789,-1.9801,-1.982,-1.9823,-1.9805,-1.9839,-1.9846,-1.988,-1.9896,-1.9868,-1.9871,-1.997,-1.9972,-1.9973,-1.9986,0,0,0,0,0,0,-1.9691,-1.9702,-1.9717,-1.9741,-1.9752,-1.9803,-1.9788,-1.9791,-1.9806,-1.9805,-1.9829,-1.9832,-1.9839,-1.9876,-1.9883,-1.99,-1.9873,-1.9968,-1.9971,-1.9973,-1.9984,-1.9988,-1.9991,0,0,0,0,0,-1.9688,-1.9719,-1.9718,-1.9726,-1.9771,-1.9804,-1.981,-1.9818,-1.9807,-1.9822,-1.9834,-1.9832,-1.9894,-1.9879,-1.9887,-1.9905,-1.9967,-1.997,-1.9972,-1.9982,-1.9987,-1.9991,0,0,0,0,0,0,-1.9695,-1.9722,-1.9721,-1.9761,-1.978,-1.9804,-1.9823,-1.9822,-1.9844,-1.9842,-1.985,-1.9856,-1.989,-1.9901,-1.9885,-1.9943,-1.9929,-1.9933,-1.9934,-1.9938,-1.9942,-1.9938,-1.9875,0,0,0,0,0,-1.9702,-1.9727,-1.9748,-1.9781,-1.9791,-1.9805,-1.982,-1.9824,-1.9844,-1.9852,-1.9867,-1.9886,-1.9909,-1.9925,-1.9947,-1.9986,-1.999,-2.0002,-2.0005,-2.0008,-2.0011,-2.0031,-2.0036,-1.9982,-1.9982,-1.9982,0,0,-1.9715,-1.9732,-1.9748,-1.9783,-1.9799,-1.9823,-1.9812,-1.9839,-1.9857,-1.9856,-1.9889,-1.99,-1.9922,-1.9958,-1.9974,-1.9968,-2.0027,-2.0011,-2.0013,-2.0015,-2.0034,-2.0039,-2.0044,-1.9984,-1.9983,-1.9983,0,0,-1.9751,-1.9768,-1.9796,-1.9812,-1.9835,-1.9844,-1.9851,-1.9875,-1.9882,-1.9915,-1.9914,-1.9936,-1.9977,-1.9992,-2.0005,-2.0046,-2.0043,-2.0053,-2.0071,-2.009,-2.0094,-2.0098,-2.0111,-2.0116,-2.0056,-2.0056,-2.0056,0,-1.9764,-1.9802,-1.9811,-1.9838,-1.9853,-1.9853,-1.9881,-1.9896,-1.9925,-1.9935,-1.9928,-1.9979,-1.9993,-2.0032,-2.0042,-2.0053,-2.006,-2.005,-2.0093,-2.0097,-2.01,-2.0113,-2.0118,-2.0057,-2.0057,-2.0057,-2.0057,0,-1.9817,-1.9843,-1.9863,-1.9892,-1.9909,-1.9937,-1.9948,-1.9965,-1.9967,-1.9976,-2.001,-2.0027,-2.0053,-2.0063,-2.0065,-2.0102,-2.0097,-2.0091,-2.0078,-2.0106,-2.0118,-2.0123,-2.0058,-2.0058,-2.0058,-2.0058,0,0,-1.9859,-1.9892,-1.9899,-1.9911,-1.9937,-1.9957,-1.9984,-2.001,-2.0023,-2.0043,-2.0065,-2.0099,-2.0094,-2.0108,-2.0113,-2.013,-2.0159,-2.0122,-2.0122,-2.0127,-2.0199,-2.0202,-2.0208,-2.0158,-2.0159,-2.016,-2.0196,0,-1.9897,-1.9946,-1.9954,-1.9996,-2.0019,-2.0019,-2.0043,-2.006,-2.0069,-2.009,-2.01,-2.0124,-2.0116,-2.0124,-2.0141,-2.0152,-2.0174,-2.015,-2.0177,-2.0178,-2.0171,-2.0214,-2.0218,-2.0252,-2.0201,-2.0202,-2.0203,0,-1.9949,-1.997,-2.0015,-2.0036,-2.0046,-2.0067,-2.009,-2.011,-2.013,-2.0135,-2.0151,-2.0153,-2.018,-2.0166,-2.0202,-2.0186,-2.0197,-2.0204,-2.0206,-2.0208,-2.0192,-2.0217,-2.0263,-2.0268,-2.0211,-2.021,-2.0209,0,-1.9973,-2.0014,-2.0045,-2.0056,-2.0082,-2.0096,-2.0108,-2.0126,-2.0141,-2.0161,-2.017,-2.0193,-2.0206,-2.0223,-2.0231,-2.022,-2.0266,-2.0253,-2.027,-2.027,-2.0279,-2.0278,-2.0327,-2.0288,-2.0288,-2.0288,-2.0288,0,-2.0015,-2.0042,-2.0056,-2.0076,-2.0105,-2.0114,-2.0142,-2.0153,-2.017,-2.019,-2.0192,-2.0211,-2.022,-2.024,-2.0247,-2.0275,-2.0281,-2.0285,-2.0286,-2.0284,-2.0284,-2.0292,-2.0289,-2.029,-2.0289,-2.0289,-2.0289,0,-2.0047,-2.0059,-2.0093,-2.0114,-2.012,-2.0141,-2.0159,-2.0177,-2.0186,-2.0212,-2.0219,-2.0233,-2.0256,-2.0266,-2.0295,-2.0299,-2.0331,-2.0331,-2.0325,-2.0325,-2.0342,-2.0339,-2.0396,-2.0404,-2.0361,-2.0361,-2.0362,0,-2.0072,-2.0093,-2.0117,-2.0131,-2.0143,-2.0165,-2.018,-2.0189,-2.0204,-2.0227,-2.0242,-2.0266,-2.0285,-2.0323,-2.0335,-2.0357,-2.0357,-2.0375,-2.036,-2.0357,-2.0356,-2.0354,-2.0355,-2.0378,-2.0378,-2.0378,-2.0379,0,-2.0115,-2.012,-2.0141,-2.0164,-2.0182,-2.0201,-2.0219,-2.023,-2.0241,-2.0258,-2.0282,-2.0297,-2.0327,-2.035,-2.0372,-2.0383,-2.0382,-2.0384,-2.0389,-2.0386,-2.0381,-2.0383,-2.0331,-2.0382,-2.0382,-2.0381,-2.0381,-2.0381,-2.0144,-2.0162,-2.0181,-2.0205,-2.0219,-2.0236,-2.0254,-2.0265,-2.0286,-2.031,-2.0314,-2.034,-2.0358,-2.0388,-2.0399,-2.0419,-2.0414,-2.0422,-2.0423,-2.0425,-2.0425,-2.0379,-2.0423,-2.0423,-2.0423,-2.0423,-2.0423,0,-2.0186,-2.0198,-2.022,-2.0245,-2.0263,-2.0262,-2.0281,-2.0296,-2.0319,-2.0336,-2.0355,-2.0383,-2.0405,-2.0419,-2.0441,-2.0454,-2.0454,-2.0459,-2.0458,-2.046,-2.0429,-2.0422,-2.0459,-2.0459,-2.0459,-2.0459,-2.0459,-2.0459,-2.021,-2.024,-2.0246,-2.0282,-2.0294,-2.032,-2.0331,-2.0346,-2.0359,-2.039,-2.0409,-2.0418,-2.0433,-2.0456,-2.0476,-2.048,-2.0487,-2.0493,-2.0495,-2.0466,-2.0462,-2.0459,-2.0452,-2.0495,-2.0495,-2.0525,-2.0525,-2.0525]}]]